Location: Winthrop
(48.4780°N, 120.1850°W)
Time: 16:33:25
(UTC-07:00)

Explorer 7 - Pass Details

Date: 01 February 2023
Orbit: 478 x 657 km, 50.3° (Epoch: 30 March)

Event Time Altitude Azimuth Distance (km) Brightness Sun altitude
Rises 11:13:42 0° 186° (S) 2,650 11.5 23.1°
Reaches altitude 10° 11:17:05 10° 155° (SSE) 1,813 11.4 23.3°
Maximum altitude 11:18:44 12° 132° (SE) 1,702 10.4 23.4°
Drops below altitude 10° 11:20:25 10° 108° (ESE) 1,864 10.1 23.4°
Sets 11:24:02 0° 78° (ENE) 2,821 10.5 23.6°
